Location: Boissi�res
(45.2500°N, 2.3667°E)
Time: 00:05:28
(UTC+00:00)

ISS - Pass Details

Date: 21 September 2021
Orbit: 417 x 423 km, 51.6° (Epoch: 18 October)

Event Time Altitude Azimuth Distance (km) Brightness Sun altitude
Rises 19:36:59 0° 270° (W) 2,360 1.3 -19.3°
Reaches altitude 10° 19:39:13 10° 281° (W) 1,499 0.2 -19.6°
Maximum altitude 19:42:18 32° 347° (NNW) 742 -2.2 -20.1°
Enters shadow 19:43:15 27° 21° (NNE) 847 -2.2 -20.3°
